When you browse on this site, cookies collect data to enhance your experience and personalize the content and advertising you see.
Visit our Privacy Policy to learn more. By continuing to use the site, you agree to this use of cookies and data.
  • In Hungary
  • List of Countries
  • For 7 days
  • Water Temperature
  • Weather Map
  • News
  • Weather Widgets
  • user-avatar
    Login

    Hourly Weather Nadzhran

    Today, 14 November, Thursday

    Time Temperature Precipitation Wind Pressure Humidity
    00:00 +15°C° 0 mm 1 mps 634 mmHg 47%
    01:00 +14°C° 0 mm 1 mps 634 mmHg 49%
    02:00 +14°C° 0 mm 1 mps 633 mmHg 50%
    03:00 +13°C° 0 mm 1 mps 632 mmHg 53%
    04:00 +12°C° 0 mm 1 mps 633 mmHg 55%
    05:00 +12°C° 0 mm 1 mps 633 mmHg 56%
    06:00 +10°C° 0 mm 0 mps 633 mmHg 58%
    07:00 +14°C° 0 mm 1 mps 634 mmHg 50%
    08:00 +17°C° 0 mm 2 mps 635 mmHg 42%
    09:00 +20°C° 0 mm 3 mps 636 mmHg 34%
    10:00 +21°C° 0 mm 3 mps 636 mmHg 31%
    11:00 +23°C° 0 mm 4 mps 636 mmHg 28%
    12:00 +25°C° 0 mm 4 mps 636 mmHg 25%
    13:00 +26°C° 0 mm 5 mps 636 mmHg 25%
    14:00 +26°C° 0 mm 5 mps 635 mmHg 24%
    15:00 +26°C° 0 mm 6 mps 635 mmHg 23%
    16:00 +24°C° 0 mm 6 mps 634 mmHg 26%
    17:00 +22°C° 0 mm 5 mps 634 mmHg 30%
    18:00 +20°C° 0 mm 5 mps 634 mmHg 33%
    19:00 +19°C° 0 mm 4 mps 634 mmHg 35%
    20:00 +17°C° 0 mm 3 mps 634 mmHg 38%
    21:00 +16°C° 0 mm 2 mps 634 mmHg 41%
    22:00 +15°C° 0 mm 2 mps 634 mmHg 43%
    23:00 +15°C° 0 mm 1 mps 634 mmHg 44%

    Tomorrow, 15 November, Friday

    Time Temperature Precipitation Wind Pressure Humidity
    00:00 +14°C° 0 mm 1 mps 634 mmHg 46%
    01:00 +12°C° 0 mm 0 mps 633 mmHg 47%
    02:00 +12°C° 0 mm 0 mps 633 mmHg 48%
    03:00 +11°C° 0 mm 0 mps 632 mmHg 49%
    04:00 +11°C° 0 mm 0 mps 632 mmHg 50%
    05:00 +10°C° 0 mm 0 mps 633 mmHg 51%
    06:00 +10°C° 0 mm 0 mps 633 mmHg 51%
    07:00 +14°C° 0 mm 1 mps 634 mmHg 44%
    08:00 +18°C° 0 mm 1 mps 635 mmHg 36%
    09:00 +20°C° 0 mm 2 mps 636 mmHg 28%
    10:00 +21°C° 0 mm 3 mps 636 mmHg 26%
    11:00 +24°C° 0 mm 3 mps 636 mmHg 24%
    12:00 +25°C° 0 mm 4 mps 636 mmHg 22%
    13:00 +25°C° 0 mm 4 mps 635 mmHg 21%
    14:00 +26°C° 0 mm 5 mps 635 mmHg 21%
    15:00 +26°C° 0 mm 5 mps 634 mmHg 20%
    16:00 +23°C° 0 mm 5 mps 634 mmHg 23%
    17:00 +21°C° 0 mm 4 mps 634 mmHg 25%
    18:00 +20°C° 0 mm 4 mps 633 mmHg 28%
    19:00 +18°C° 0 mm 3 mps 633 mmHg 31%
    20:00 +17°C° 0 mm 2 mps 633 mmHg 33%
    21:00 +16°C° 0 mm 1 mps 633 mmHg 35%
    22:00 +15°C° 0 mm 1 mps 633 mmHg 37%
    23:00 +14°C° 0 mm 1 mps 632 mmHg 39%

    Day after tomorrow, 16 November, Saturday

    Time Temperature Precipitation Wind Pressure Humidity
    00:00 +13°C° 0 mm 0 mps 632 mmHg 40%
    01:00 +12°C° 0 mm 0 mps 631 mmHg 41%
    02:00 +12°C° 0 mm 0 mps 631 mmHg 42%
    03:00 +11°C° 0 mm 0 mps 630 mmHg 44%
    04:00 +11°C° 0 mm 0 mps 631 mmHg 44%
    05:00 +11°C° 0 mm 0 mps 631 mmHg 45%
    06:00 +11°C° 0 mm 0 mps 631 mmHg 46%
    07:00 +13°C° 0 mm 0 mps 632 mmHg 40%
    08:00 +18°C° 0 mm 1 mps 633 mmHg 33%
    09:00 +21°C° 0 mm 1 mps 634 mmHg 26%
    10:00 +23°C° 0 mm 2 mps 634 mmHg 24%
    11:00 +25°C° 0 mm 2 mps 634 mmHg 22%
    12:00 +26°C° 0 mm 3 mps 634 mmHg 20%
    13:00 +27°C° 0 mm 4 mps 634 mmHg 20%
    14:00 +27°C° 0 mm 5 mps 633 mmHg 19%
    15:00 +27°C° 0 mm 6 mps 633 mmHg 19%
    16:00 +25°C° 0 mm 5 mps 633 mmHg 22%
    17:00 +22°C° 0 mm 5 mps 632 mmHg 26%
    18:00 +20°C° 0 mm 4 mps 632 mmHg 29%
    19:00 +19°C° 0 mm 3 mps 632 mmHg 31%
    20:00 +19°C° 0 mm 2 mps 632 mmHg 33%
    21:00 +18°C° 0 mm 2 mps 632 mmHg 35%
    22:00 +18°C° 0 mm 1 mps 632 mmHg 37%
    23:00 +16°C° 0 mm 1 mps 632 mmHg 40%

    17 November, Sunday

    Time Temperature Precipitation Wind Pressure Humidity
    00:00 +16°C° 0 mm 1 mps 631 mmHg 42%
    01:00 +15°C° 0 mm 1 mps 631 mmHg 45%
    02:00 +14°C° 0 mm 1 mps 630 mmHg 47%
    03:00 +13°C° 0 mm 1 mps 630 mmHg 49%
    04:00 +12°C° 0 mm 0 mps 630 mmHg 51%
    05:00 +11°C° 0 mm 0 mps 630 mmHg 52%
    06:00 +11°C° 0 mm 0 mps 630 mmHg 54%
    07:00 +15°C° 0 mm 1 mps 632 mmHg 46%
    08:00 +18°C° 0 mm 2 mps 633 mmHg 38%
    09:00 +22°C° 0 mm 3 mps 634 mmHg 30%
    10:00 +25°C° 0 mm 3 mps 634 mmHg 27%
    11:00 +26°C° 0 mm 4 mps 634 mmHg 24%
    12:00 +28°C° 0 mm 4 mps 634 mmHg 21%
    13:00 +28°C° 0 mm 4 mps 634 mmHg 21%
    14:00 +28°C° 0 mm 5 mps 634 mmHg 22%
    15:00 +28°C° 0 mm 5 mps 633 mmHg 23%
    16:00 +27°C° 0 mm 5 mps 633 mmHg 26%
    17:00 +26°C° 0 mm 5 mps 633 mmHg 30%
    18:00 +23°C° 0 mm 5 mps 633 mmHg 33%
    19:00 +22°C° 0 mm 4 mps 633 mmHg 37%
    20:00 +21°C° 0 mm 3 mps 633 mmHg 40%
    21:00 +19°C° 0 mm 3 mps 633 mmHg 43%
    22:00 +19°C° 0 mm 2 mps 633 mmHg 47%
    23:00 +18°C° 0 mm 2 mps 633 mmHg 50%

    18 November, Monday

    Time Temperature Precipitation Wind Pressure Humidity
    00:00 +18°C° 0 mm 1 mps 632 mmHg 54%
    01:00 +16°C° 0 mm 1 mps 632 mmHg 56%
    02:00 +15°C° 0 mm 1 mps 631 mmHg 58%
    03:00 +14°C° 0 mm 0 mps 631 mmHg 61%
    04:00 +13°C° 0 mm 0 mps 631 mmHg 63%
    05:00 +13°C° 0 mm 0 mps 631 mmHg 65%
    06:00 +12°C° 0 mm 0 mps 631 mmHg 68%
    07:00 +15°C° 0 mm 0 mps 632 mmHg 58%
    08:00 +18°C° 0 mm 0 mps 634 mmHg 48%
    09:00 +21°C° 0 mm 0 mps 635 mmHg 38%
    10:00 +25°C° 0 mm 1 mps 635 mmHg 33%
    11:00 +26°C° 0 mm 1 mps 635 mmHg 29%
    12:00 +28°C° 0 mm 2 mps 635 mmHg 24%
    13:00 +29°C° 0 mm 3 mps 634 mmHg 23%
    14:00 +29°C° 0 mm 4 mps 634 mmHg 22%
    15:00 +30°C° 0 mm 5 mps 634 mmHg 21%
    16:00 +28°C° 0 mm 4 mps 634 mmHg 25%
    17:00 +27°C° 0 mm 3 mps 634 mmHg 29%
    18:00 +25°C° 0 mm 3 mps 634 mmHg 33%
    19:00 +24°C° 0 mm 3 mps 634 mmHg 35%
    20:00 +22°C° 0 mm 3 mps 634 mmHg 37%
    21:00 +21°C° 0 mm 2 mps 634 mmHg 40%
    22:00 +20°C° 0 mm 2 mps 633 mmHg 42%
    23:00 +19°C° 0 mm 2 mps 633 mmHg 44%

    19 November, Tuesday

    Time Temperature Precipitation Wind Pressure Humidity
    00:00 +19°C° 0 mm 1 mps 632 mmHg 46%
    01:00 +18°C° 0 mm 1 mps 632 mmHg 48%
    02:00 +16°C° 0 mm 1 mps 632 mmHg 49%
    03:00 +15°C° 0 mm 1 mps 631 mmHg 51%
    04:00 +15°C° 0 mm 1 mps 631 mmHg 52%
    05:00 +14°C° 0 mm 1 mps 631 mmHg 54%
    06:00 +12°C° 0 mm 0 mps 631 mmHg 55%
    07:00 +16°C° 0 mm 1 mps 632 mmHg 47%
    08:00 +20°C° 0 mm 1 mps 634 mmHg 40%
    09:00 +23°C° 0 mm 1 mps 635 mmHg 32%
    10:00 +25°C° 0 mm 1 mps 635 mmHg 28%
    11:00 +27°C° 0 mm 2 mps 635 mmHg 23%
    12:00 +30°C° 0 mm 3 mps 635 mmHg 19%
    13:00 +30°C° 0 mm 3 mps 634 mmHg 18%
    14:00 +30°C° 0 mm 4 mps 634 mmHg 18%
    15:00 +30°C° 0 mm 5 mps 633 mmHg 17%
    16:00 +28°C° 0 mm 4 mps 633 mmHg 22%
    17:00 +26°C° 0 mm 3 mps 633 mmHg 27%
    18:00 +24°C° 0 mm 2 mps 632 mmHg 31%
    19:00 +21°C° 0 mm 2 mps 632 mmHg 36%
    20:00 +21°C° 0 mm 1 mps 632 mmHg 40%
    21:00 +20°C° 0 mm 1 mps 631 mmHg 45%
    22:00 +17°C° 0 mm 0 mps 631 mmHg 47%
    23:00 +17°C° 0 mm 0 mps 631 mmHg 50%
    Show more